• In Belarus
  • List of Countries
  • For 7 days
  • Water Temperature
  • Satellite Maps
  • Weather Map
  • Weather Widgets
  • user-avatar
    Login

    Hourly Weather Wafra

    Today, 13 December, Thursday

    Time Temperature Precipitation Wind Pressure Humidity
    00:00 +18°C° 0 mm 1 mps 752 mmHg 45%
    01:00 +16°C° 0 mm 1 mps 751 mmHg 46%
    02:00 +16°C° 0 mm 1 mps 751 mmHg 47%
    03:00 +16°C° 0 mm 1 mps 751 mmHg 50%
    04:00 +16°C° 0 mm 1 mps 751 mmHg 51%
    05:00 +15°C° 0 mm 1 mps 752 mmHg 52%
    06:00 +15°C° 0 mm 1 mps 752 mmHg 54%
    07:00 +18°C° 0 mm 1 mps 752 mmHg 50%
    08:00 +19°C° 0 mm 1 mps 752 mmHg 46%
    09:00 +20°C° 0 mm 1 mps 753 mmHg 42%
    10:00 +21°C° 0 mm 1 mps 752 mmHg 41%
    11:00 +21°C° 0 mm 2 mps 752 mmHg 40%
    12:00 +23°C° 0 mm 2 mps 752 mmHg 39%
    13:00 +23°C° 0 mm 2 mps 752 mmHg 39%
    14:00 +24°C° 0 mm 2 mps 752 mmHg 38%
    15:00 +24°C° 0 mm 3 mps 751 mmHg 41%
    16:00 +23°C° 0 mm 2 mps 752 mmHg 44%
    17:00 +21°C° 0 mm 2 mps 752 mmHg 47%
    18:00 +20°C° 0 mm 2 mps 752 mmHg 51%
    19:00 +20°C° 0 mm 2 mps 752 mmHg 52%
    20:00 +20°C° 0 mm 2 mps 752 mmHg 54%
    21:00 +20°C° 0 mm 1 mps 753 mmHg 56%
    22:00 +20°C° 0 mm 1 mps 753 mmHg 55%
    23:00 +20°C° 0 mm 1 mps 752 mmHg 55%

    Tomorrow, 14 December, Friday

    Time Temperature Precipitation Wind Pressure Humidity
    00:00 +20°C° 0 mm 1 mps 752 mmHg 55%
    01:00 +20°C° 0 mm 1 mps 752 mmHg 54%
    02:00 +19°C° 0 mm 2 mps 752 mmHg 53%
    03:00 +19°C° 0 mm 2 mps 752 mmHg 52%
    04:00 +19°C° 0 mm 2 mps 753 mmHg 51%
    05:00 +19°C° 0 mm 2 mps 753 mmHg 51%
    06:00 +19°C° 0 mm 2 mps 753 mmHg 51%
    07:00 +20°C° 0 mm 2 mps 753 mmHg 48%
    08:00 +20°C° 0 mm 2 mps 753 mmHg 46%
    09:00 +21°C° 0 mm 2 mps 754 mmHg 44%
    10:00 +22°C° 0 mm 3 mps 754 mmHg 41%
    11:00 +24°C° 0 mm 3 mps 753 mmHg 39%
    12:00 +24°C° 0 mm 3 mps 753 mmHg 37%
    13:00 +25°C° 0 mm 3 mps 753 mmHg 37%
    14:00 +25°C° 0 mm 3 mps 753 mmHg 37%
    15:00 +25°C° 0 mm 3 mps 752 mmHg 37%
    16:00 +24°C° 0 mm 3 mps 753 mmHg 40%
    17:00 +22°C° 0 mm 3 mps 753 mmHg 42%
    18:00 +22°C° 0 mm 3 mps 753 mmHg 45%
    19:00 +21°C° 0 mm 3 mps 753 mmHg 47%
    20:00 +21°C° 0 mm 3 mps 753 mmHg 48%
    21:00 +20°C° 0 mm 3 mps 754 mmHg 50%
    22:00 +20°C° 0 mm 3 mps 753 mmHg 50%
    23:00 +20°C° 0 mm 3 mps 753 mmHg 50%

    Day after tomorrow, 15 December, Saturday

    Time Temperature Precipitation Wind Pressure Humidity
    00:00 +19°C° 0 mm 4 mps 753 mmHg 50%
    01:00 +19°C° 0 mm 4 mps 753 mmHg 50%
    02:00 +18°C° 0 mm 4 mps 753 mmHg 50%
    03:00 +18°C° 0 mm 4 mps 753 mmHg 51%
    04:00 +16°C° 0 mm 5 mps 753 mmHg 50%
    05:00 +16°C° 0 mm 5 mps 753 mmHg 50%
    06:00 +16°C° 0 mm 5 mps 753 mmHg 50%
    07:00 +16°C° 0 mm 5 mps 754 mmHg 46%
    08:00 +17°C° 0 mm 5 mps 754 mmHg 42%
    09:00 +17°C° 0 mm 5 mps 755 mmHg 38%
    10:00 +19°C° 0 mm 5 mps 755 mmHg 34%
    11:00 +20°C° 0 mm 5 mps 754 mmHg 31%
    12:00 +21°C° 0 mm 5 mps 754 mmHg 28%
    13:00 +21°C° 0 mm 5 mps 754 mmHg 27%
    14:00 +22°C° 0 mm 4 mps 753 mmHg 27%
    15:00 +22°C° 0 mm 4 mps 753 mmHg 26%
    16:00 +21°C° 0 mm 4 mps 753 mmHg 27%
    17:00 +20°C° 0 mm 4 mps 753 mmHg 29%
    18:00 +20°C° 0 mm 3 mps 753 mmHg 30%
    19:00 +19°C° 0 mm 3 mps 753 mmHg 30%
    20:00 +19°C° 0 mm 3 mps 754 mmHg 30%
    21:00 +19°C° 0 mm 3 mps 754 mmHg 31%
    22:00 +18°C° 0 mm 3 mps 754 mmHg 31%
    23:00 +18°C° 0 mm 3 mps 754 mmHg 32%

    16 December, Sunday

    Time Temperature Precipitation Wind Pressure Humidity
    00:00 +17°C° 0 mm 4 mps 754 mmHg 33%
    01:00 +17°C° 0 mm 4 mps 753 mmHg 34%
    02:00 +17°C° 0 mm 4 mps 753 mmHg 36%
    03:00 +17°C° 0 mm 4 mps 753 mmHg 37%
    04:00 +16°C° 0 mm 3 mps 753 mmHg 39%
    05:00 +16°C° 0 mm 3 mps 753 mmHg 41%
    06:00 +16°C° 0 mm 3 mps 753 mmHg 43%
    07:00 +16°C° 0 mm 3 mps 754 mmHg 41%
    08:00 +17°C° 0 mm 3 mps 754 mmHg 40%
    09:00 +18°C° 0 mm 3 mps 754 mmHg 38%
    10:00 +19°C° 0 mm 2 mps 754 mmHg 36%
    11:00 +20°C° 0 mm 2 mps 754 mmHg 33%
    12:00 +22°C° 0 mm 1 mps 753 mmHg 31%
    13:00 +22°C° 0 mm 1 mps 753 mmHg 30%
    14:00 +22°C° 0 mm 1 mps 753 mmHg 30%
    15:00 +23°C° 0 mm 1 mps 752 mmHg 30%
    16:00 +22°C° 0 mm 1 mps 752 mmHg 32%
    17:00 +21°C° 0 mm 2 mps 752 mmHg 34%
    18:00 +20°C° 0 mm 2 mps 753 mmHg 36%
    19:00 +20°C° 0 mm 2 mps 753 mmHg 38%
    20:00 +19°C° 0 mm 2 mps 753 mmHg 39%
    21:00 +19°C° 0 mm 2 mps 753 mmHg 41%
    22:00 +19°C° 0 mm 2 mps 752 mmHg 44%
    23:00 +18°C° 0 mm 2 mps 752 mmHg 46%

    17 December, Monday

    Time Temperature Precipitation Wind Pressure Humidity
    00:00 +18°C° 0 mm 3 mps 752 mmHg 49%
    01:00 +18°C° 0 mm 3 mps 751 mmHg 51%
    02:00 +18°C° 0 mm 3 mps 751 mmHg 54%
    03:00 +18°C° 0 mm 3 mps 751 mmHg 56%
    04:00 +17°C° 0 mm 4 mps 751 mmHg 59%
    05:00 +17°C° 0 mm 4 mps 751 mmHg 61%
    06:00 +17°C° 0 mm 4 mps 751 mmHg 64%
    07:00 +17°C° 0 mm 5 mps 751 mmHg 60%
    08:00 +19°C° 0 mm 6 mps 751 mmHg 57%
    09:00 +20°C° 0 mm 7 mps 751 mmHg 54%
    10:00 +21°C° 0 mm 7 mps 751 mmHg 50%
    11:00 +23°C° 0 mm 7 mps 750 mmHg 45%
    12:00 +24°C° 0 mm 8 mps 750 mmHg 41%
    13:00 +24°C° 0 mm 8 mps 749 mmHg 40%
    14:00 +26°C° 0 mm 7 mps 749 mmHg 39%
    15:00 +26°C° 0 mm 7 mps 748 mmHg 38%
    16:00 +24°C° 0 mm 7 mps 748 mmHg 40%
    17:00 +24°C° 0 mm 7 mps 748 mmHg 43%
    18:00 +23°C° 0 mm 6 mps 749 mmHg 46%
    19:00 +22°C° 0 mm 7 mps 749 mmHg 47%
    20:00 +22°C° 0 mm 7 mps 749 mmHg 48%
    21:00 +22°C° 0 mm 7 mps 749 mmHg 50%
    22:00 +22°C° 0 mm 7 mps 748 mmHg 49%
    23:00 +22°C° 0 mm 8 mps 748 mmHg 48%

    18 December, Tuesday

    Time Temperature Precipitation Wind Pressure Humidity
    00:00 +22°C° 0 mm 8 mps 748 mmHg 47%
    01:00 +21°C° 0 mm 7 mps 748 mmHg 47%
    02:00 +21°C° 0 mm 6 mps 748 mmHg 47%
    03:00 +21°C° 0 mm 5 mps 748 mmHg 46%
    04:00 +20°C° 0 mm 5 mps 748 mmHg 48%
    05:00 +20°C° 0 mm 4 mps 749 mmHg 50%
    06:00 +20°C° 0 mm 4 mps 749 mmHg 52%
    07:00 +20°C° 0 mm 5 mps 750 mmHg 52%
    08:00 +21°C° 0 mm 5 mps 750 mmHg 52%
    09:00 +21°C° 0 mm 6 mps 751 mmHg 52%
    10:00 +21°C° 0 mm 6 mps 751 mmHg 47%
    11:00 +22°C° 0 mm 7 mps 750 mmHg 42%
    12:00 +23°C° 0 mm 7 mps 750 mmHg 37%
    13:00 +23°C° 0 mm 7 mps 750 mmHg 36%
    14:00 +23°C° 0 mm 7 mps 750 mmHg 35%
    15:00 +23°C° 0 mm 7 mps 750 mmHg 35%
    16:00 +22°C° 0 mm 6 mps 750 mmHg 38%
    17:00 +21°C° 0 mm 6 mps 751 mmHg 41%
    18:00 +20°C° 0 mm 5 mps 751 mmHg 45%
    19:00 +19°C° 0 mm 5 mps 751 mmHg 48%
    20:00 +19°C° 0 mm 5 mps 752 mmHg 51%
    21:00 +17°C° 0 mm 5 mps 752 mmHg 54%
    22:00 +17°C° 0 mm 5 mps 752 mmHg 57%
    23:00 +16°C° 0 mm 5 mps 752 mmHg 59%
    Show more